FDX84 PANC-KMEM

Flight info

Callsign FDX84
Flight time N/A
Altitude 35000
Route NOEND4 NOEND YAK NCA10 DEEJA MITOM 57N125W YQU YEGGA GUDOG/N0485F350 ITREK ISN KEKPE OVR DRIVL MAHER WHOLL BRBBQ3
Aircraft B77L/H-SDE1E2E3FGHIJ2J3J4J5M1RWXY/LB1D1

Departure

Time N/A
Airport Ted Stevens Anchorage International Airport (PANC)

Arrival

Time 2026-05-05 01:28
Airport Memphis International Airport (KMEM)
Time Latitude Longitude Altitude Speed Heading
2026-05-05 00:42 39.14262 -93.52966 34692 ft 544 kts 146°
2026-05-05 00:42 39.08507 -93.46659 34678 ft 543 kts 145°
2026-05-05 00:43 39.02748 -93.40341 34683 ft 542 kts 145°
2026-05-05 00:43 38.97028 -93.34110 34693 ft 542 kts 145°
2026-05-05 00:44 38.91252 -93.27855 34693 ft 543 kts 145°
2026-05-05 00:44 38.86444 -93.22658 34709 ft 543 kts 145°
2026-05-05 00:45 38.79678 -93.15363 34726 ft 551 kts 145°
2026-05-05 00:45 38.74712 -93.10019 34722 ft 557 kts 145°
2026-05-05 00:46 38.67823 -93.02610 34717 ft 552 kts 145°
2026-05-05 00:46 38.62977 -92.97404 34686 ft 543 kts 145°
2026-05-05 00:47 38.57157 -92.91184 34699 ft 553 kts 145°
2026-05-05 00:47 38.51191 -92.84826 34700 ft 559 kts 145°
2026-05-05 00:48 38.45216 -92.78458 34694 ft 558 kts 145°
2026-05-05 00:48 38.39297 -92.72162 34689 ft 556 kts 145°
2026-05-05 00:49 38.33351 -92.65855 34712 ft 554 kts 145°
2026-05-05 00:49 38.27452 -92.59610 34693 ft 547 kts 145°
2026-05-05 00:50 38.21625 -92.53463 34701 ft 546 kts 145°
2026-05-05 00:50 38.15775 -92.47294 34684 ft 546 kts 145°
2026-05-05 00:51 38.09834 -92.41059 34702 ft 558 kts 146°
2026-05-05 00:51 38.03846 -92.34784 34712 ft 563 kts 145°
2026-05-05 00:52 37.97799 -92.28446 34729 ft 563 kts 145°
2026-05-05 00:52 37.91794 -92.22165 34673 ft 555 kts 145°
2026-05-05 00:53 37.85826 -92.15950 34728 ft 562 kts 146°
2026-05-05 00:53 37.79640 -92.09817 34729 ft 562 kts 152°
2026-05-05 00:54 37.72876 -92.04997 34736 ft 554 kts 163°
2026-05-05 00:54 37.65749 -92.01429 34720 ft 551 kts 167°
2026-05-05 00:55 37.58635 -91.97979 34747 ft 551 kts 167°
2026-05-05 00:55 37.51489 -91.94460 34735 ft 550 kts 167°
2026-05-05 00:56 37.44365 -91.90921 34724 ft 549 kts 167°
2026-05-05 00:56 37.37280 -91.87404 34757 ft 547 kts 166°
2026-05-05 00:57 37.30238 -91.83921 34767 ft 546 kts 166°
2026-05-05 00:57 37.23159 -91.80428 34773 ft 546 kts 167°
2026-05-05 00:58 37.16071 -91.76940 34778 ft 546 kts 167°
2026-05-05 00:58 37.08986 -91.73463 34793 ft 547 kts 167°
2026-05-05 00:59 37.01916 -91.69997 34795 ft 549 kts 167°
2026-05-05 00:59 36.94775 -91.66503 34776 ft 550 kts 167°
2026-05-05 01:00 36.87675 -91.63036 34793 ft 552 kts 167°
2026-05-05 01:00 36.84071 -91.61285 34309 ft 560 kts 167°
2026-05-05 01:00 36.80453 -91.59524 33462 ft 552 kts 166°
2026-05-05 01:00 36.76889 -91.57781 32648 ft 549 kts 165°
2026-05-05 01:01 36.73320 -91.56043 31789 ft 548 kts 165°
2026-05-05 01:01 36.69780 -91.54322 31269 ft 541 kts 165°
2026-05-05 01:01 36.66334 -91.52645 30793 ft 534 kts 163°
2026-05-05 01:01 36.62899 -91.50971 30301 ft 527 kts 163°
2026-05-05 01:02 36.59494 -91.49321 29794 ft 520 kts 163°
2026-05-05 01:02 36.56134 -91.47700 29213 ft 514 kts 163°
2026-05-05 01:02 36.52821 -91.46102 28693 ft 507 kts 163°
2026-05-05 01:02 36.49541 -91.44520 28196 ft 500 kts 163°
2026-05-05 01:03 36.46321 -91.42967 27676 ft 493 kts 163°
2026-05-05 01:03 36.43137 -91.41433 27216 ft 487 kts 163°
2026-05-05 01:03 36.40031 -91.39937 26730 ft 482 kts 163°
2026-05-05 01:03 36.36917 -91.38440 26244 ft 477 kts 163°
2026-05-05 01:04 36.33834 -91.36959 25774 ft 472 kts 163°
2026-05-05 01:04 36.27759 -91.34043 24844 ft 463 kts 163°
2026-05-05 01:04 36.24755 -91.32602 24363 ft 459 kts 163°
2026-05-05 01:05 36.21780 -91.31176 23890 ft 455 kts 163°
2026-05-05 01:05 36.18869 -91.29783 23439 ft 452 kts 163°
2026-05-05 01:05 36.15975 -91.28289 22898 ft 450 kts 159°
2026-05-05 01:05 36.13164 -91.26621 22423 ft 447 kts 157°
2026-05-05 01:06 36.10401 -91.24894 21934 ft 443 kts 156°
2026-05-05 01:06 36.07668 -91.23176 21477 ft 439 kts 156°
2026-05-05 01:06 36.04952 -91.21487 21019 ft 434 kts 157°
2026-05-05 01:06 36.02256 -91.19833 20581 ft 431 kts 157°
2026-05-05 01:07 35.99576 -91.18205 20125 ft 427 kts 157°
2026-05-05 01:07 35.96909 -91.16594 19677 ft 424 kts 157°
2026-05-05 01:07 35.94266 -91.15001 19236 ft 421 kts 157°
2026-05-05 01:07 35.91672 -91.13439 18795 ft 418 kts 157°
2026-05-05 01:08 35.89054 -91.11864 18341 ft 416 kts 157°
2026-05-05 01:08 35.86456 -91.10300 17836 ft 414 kts 157°
2026-05-05 01:08 35.83883 -91.08752 17526 ft 406 kts 157°
2026-05-05 01:08 35.81378 -91.07244 17354 ft 395 kts 157°
2026-05-05 01:09 35.78944 -91.05787 16909 ft 392 kts 157°
2026-05-05 01:09 35.76502 -91.04328 16494 ft 388 kts 157°
2026-05-05 01:09 35.74080 -91.02885 16073 ft 384 kts 157°
2026-05-05 01:09 35.71683 -91.01456 15660 ft 381 kts 157°
2026-05-05 01:10 35.69301 -91.00036 15248 ft 378 kts 157°
2026-05-05 01:10 35.66946 -90.98633 14839 ft 375 kts 157°
2026-05-05 01:10 35.64609 -90.97241 14443 ft 372 kts 157°
2026-05-05 01:10 35.62314 -90.95875 14041 ft 369 kts 157°
2026-05-05 01:11 35.60007 -90.94502 13627 ft 367 kts 157°
2026-05-05 01:11 35.57716 -90.93140 13161 ft 364 kts 157°
2026-05-05 01:11 35.55443 -90.91789 12748 ft 361 kts 156°
2026-05-05 01:11 35.53197 -90.90456 12348 ft 357 kts 156°
2026-05-05 01:12 35.51090 -90.88974 12168 ft 342 kts 141°
2026-05-05 01:12 35.49561 -90.86769 11866 ft 341 kts 120°
2026-05-05 01:12 35.48600 -90.84118 11529 ft 340 kts 112°
2026-05-05 01:12 35.47726 -90.81427 11186 ft 347 kts 112°
2026-05-05 01:13 35.46821 -90.78647 10828 ft 351 kts 112°
2026-05-05 01:13 35.45912 -90.75880 10612 ft 345 kts 113°
2026-05-05 01:13 35.45039 -90.73242 10424 ft 322 kts 113°
2026-05-05 01:13 35.44223 -90.70792 10285 ft 298 kts 114°
2026-05-05 01:14 35.43456 -90.68504 10167 ft 284 kts 114°
2026-05-05 01:14 35.42715 -90.66298 10076 ft 277 kts 114°
2026-05-05 01:14 35.41972 -90.64086 10033 ft 284 kts 113°
2026-05-05 01:14 35.41239 -90.61814 10017 ft 290 kts 112°
2026-05-05 01:15 35.40500 -90.59499 9985 ft 291 kts 112°
2026-05-05 01:15 35.39778 -90.57230 9960 ft 288 kts 112°
2026-05-05 01:15 35.39055 -90.54956 9977 ft 285 kts 112°
2026-05-05 01:15 35.38337 -90.52697 9960 ft 284 kts 112°
2026-05-05 01:16 35.37622 -90.50441 9977 ft 283 kts 112°
2026-05-05 01:16 35.36910 -90.48188 9979 ft 284 kts 112°
2026-05-05 01:16 35.36191 -90.45910 9980 ft 287 kts 112°
2026-05-05 01:16 35.35478 -90.43653 9946 ft 278 kts 112°
2026-05-05 01:17 35.34792 -90.41475 9953 ft 272 kts 112°
2026-05-05 01:17 35.34126 -90.39360 9948 ft 264 kts 112°
2026-05-05 01:17 35.33484 -90.37303 9950 ft 253 kts 112°
2026-05-05 01:17 35.32869 -90.35287 10016 ft 254 kts 112°
2026-05-05 01:18 35.32249 -90.33248 9977 ft 255 kts 112°
2026-05-05 01:18 35.31634 -90.31217 9956 ft 253 kts 112°
2026-05-05 01:18 35.31026 -90.29206 9851 ft 251 kts 112°
2026-05-05 01:18 35.30425 -90.27206 9562 ft 249 kts 112°
2026-05-05 01:19 35.29842 -90.25247 9146 ft 246 kts 112°
2026-05-05 01:19 35.29263 -90.23279 8742 ft 245 kts 112°
2026-05-05 01:19 35.28696 -90.21316 8349 ft 243 kts 112°
2026-05-05 01:19 35.28144 -90.19368 7981 ft 240 kts 112°
2026-05-05 01:20 35.27608 -90.17440 7590 ft 238 kts 112°
2026-05-05 01:20 35.27084 -90.15516 7196 ft 236 kts 110°
2026-05-05 01:20 35.26875 -90.13542 6719 ft 241 kts 92°
2026-05-05 01:20 35.26972 -90.11471 6245 ft 245 kts 89°
2026-05-05 01:21 35.27120 -90.09386 5780 ft 247 kts 88°
2026-05-05 01:21 35.27282 -90.07277 5352 ft 246 kts 88°
2026-05-05 01:21 35.27449 -90.05198 4993 ft 244 kts 88°
2026-05-05 01:21 35.27622 -90.03149 4735 ft 238 kts 88°
2026-05-05 01:22 35.27787 -90.01204 4384 ft 222 kts 94°
2026-05-05 01:22 35.27460 -89.99493 3919 ft 203 kts 131°
2026-05-05 01:22 35.26432 -89.98502 3518 ft 181 kts 169°
2026-05-05 01:22 35.25247 -89.98209 3227 ft 170 kts 176°
2026-05-05 01:23 35.24078 -89.97995 2975 ft 166 kts 175°
2026-05-05 01:23 35.22934 -89.97800 2984 ft 167 kts 178°
2026-05-05 01:23 35.21800 -89.97692 2964 ft 159 kts 181°
2026-05-05 01:23 35.20705 -89.97641 2966 ft 155 kts 183°
2026-05-05 01:24 35.19630 -89.97609 2982 ft 156 kts 183°
2026-05-05 01:24 35.18536 -89.97585 2897 ft 163 kts 182°
2026-05-05 01:24 35.17398 -89.97560 2681 ft 161 kts 183°
2026-05-05 01:24 35.16314 -89.97535 2466 ft 150 kts 183°
2026-05-05 01:25 35.15315 -89.97513 2317 ft 137 kts 184°
2026-05-05 01:25 35.14383 -89.97494 2136 ft 133 kts 183°
2026-05-05 01:25 35.13463 -89.97475 1983 ft 130 kts 184°
2026-05-05 01:25 35.12565 -89.97457 1788 ft 129 kts 183°
2026-05-05 01:26 35.11669 -89.97431 1621 ft 126 kts 183°
2026-05-05 01:26 35.10782 -89.97412 1459 ft 132 kts 182°
2026-05-05 01:26 35.09853 -89.97376 1322 ft 134 kts 181°
2026-05-05 01:26 35.08922 -89.97361 1156 ft 133 kts 183°
2026-05-05 01:27 35.07969 -89.97362 961 ft 139 kts 181°
2026-05-05 01:27 35.07008 -89.97339 826 ft 136 kts 179°
2026-05-05 01:27 35.06066 -89.97325 615 ft 139 kts 180°
2026-05-05 01:27 35.05113 -89.97293 404 ft 135 kts 180°
2026-05-05 01:28 35.04174 -89.97280 333 ft 136 kts 180°
2026-05-05 01:28 35.03354 -89.97266 333 ft 92 kts 178°
2026-05-05 01:28 35.02934 -89.97258 332 ft 32 kts 182°
2026-05-05 01:28 35.02760 -89.97318 330 ft 11 kts 210°
2026-05-05 01:29 35.02728 -89.97394 330 ft 11 kts 293°
2026-05-05 01:29 35.02801 -89.97427 329 ft 11 kts 356°
2026-05-05 01:29 35.02873 -89.97429 330 ft 10 kts 359°
2026-05-05 01:29 35.02944 -89.97431 328 ft 10 kts 359°
2026-05-05 01:30 35.03015 -89.97432 331 ft 10 kts 359°
2026-05-05 01:30 35.03086 -89.97434 330 ft 10 kts
2026-05-05 01:30 35.03159 -89.97434 330 ft 11 kts 360°
2026-05-05 01:30 35.03235 -89.97435 329 ft 11 kts 359°
2026-05-05 01:31 35.03318 -89.97438 329 ft 15 kts 358°
2026-05-05 01:31 35.03393 -89.97442 330 ft 16 kts 358°
2026-05-05 01:31 35.03507 -89.97446 328 ft 16 kts 359°
2026-05-05 01:31 35.03621 -89.97448 327 ft 16 kts 359°
2026-05-05 01:32 35.03735 -89.97449 329 ft 16 kts 359°
2026-05-05 01:32 35.03849 -89.97451 330 ft 16 kts 359°
2026-05-05 01:32 35.03963 -89.97452 330 ft 16 kts 359°
2026-05-05 01:32 35.04076 -89.97455 330 ft 16 kts 359°
2026-05-05 01:33 35.04190 -89.97457 330 ft 16 kts 359°
2026-05-05 01:33 35.04304 -89.97461 331 ft 16 kts 358°
2026-05-05 01:33 35.04418 -89.97463 330 ft 16 kts 358°
2026-05-05 01:33 35.04532 -89.97465 330 ft 16 kts
2026-05-05 01:34 35.04646 -89.97468 330 ft 16 kts 359°
2026-05-05 01:34 35.04759 -89.97469 330 ft 16 kts 359°
2026-05-05 01:34 35.04873 -89.97472 329 ft 16 kts 358°
2026-05-05 01:34 35.04987 -89.97475 328 ft 16 kts 360°
2026-05-05 01:35 35.05101 -89.97477 329 ft 16 kts 359°
2026-05-05 01:35 35.05215 -89.97479 329 ft 16 kts 359°
2026-05-05 01:35 35.05329 -89.97482 329 ft 16 kts 358°
2026-05-05 01:35 35.05443 -89.97486 330 ft 16 kts 358°
2026-05-05 01:36 35.05557 -89.97488 331 ft 16 kts 359°
2026-05-05 01:36 35.05669 -89.97489 332 ft 16 kts 359°
2026-05-05 01:36 35.05783 -89.97489 333 ft 16 kts
2026-05-05 01:36 35.05895 -89.97508 331 ft 16 kts 344°
2026-05-05 01:37 35.06006 -89.97537 332 ft 14 kts 353°
2026-05-05 01:37 35.06103 -89.97543 332 ft 13 kts
2026-05-05 01:37 35.06180 -89.97515 330 ft 12 kts 47°
2026-05-05 01:37 35.06197 -89.97420 331 ft 11 kts 87°
2026-05-05 01:38 35.06197 -89.97329 331 ft 8 kts 90°
2026-05-05 01:38 35.06212 -89.97290 331 ft 5 kts 32°
2026-05-05 01:38 35.06235 -89.97279 332 ft 4 kts 15°
2026-05-05 01:38 35.06258 -89.97275 333 ft 3 kts
2026-05-05 01:39 35.06272 -89.97275 333 ft 0 kts